Content
SEND FEEDBACK

Daily
Averages
Monthly
Summary
United States of America

ST. LOUIS - SAINT LOUIS UNIVERSITY, MISSOURI


Home > North America > United States > Missouri
Elevation: 580 feet     Latitude: 38 38N     Longitude: 090 14W

WEATHER
 
SELECT A DAY
Number of Records: 185,881;   Date Range: 1/1/95 - 7/7/14
 
SHARE

PRINT THIS DATA

[ ← Previous Day ]
WEATHER ALMANAC - SEPTEMBER 15, 2013
[ Next Day → ]
[ °C ]   °F
Weather ElementAverageHighLow
Temperature68.5 °F84 °F (4:53 pm)50 °F (4:53 am)
Dewpoint53 °F64 °F (11:53 pm)45 °F (4:53 am)
Humidity60.9 %87 % (11:53 pm)36 % (1:53 pm)
Barometer30.05 in30.10 in (11:53 pm)29.99 in (4:53 pm)
Wind Speed4.4 mph13.8 mph (8:53 pm)
Wind Gust17.3 mph (8:53 pm)
Weather ElementAverage
Visibility10 mi
Wind DirectionSE (139.6 °)

Weather ElementTotal
Precipitation---
Cooling Degree Days2 (Base 65)
Growing Degree Days17 (Base 50)
Averaged from 24 records on September 15, 2013
WEATHER CONDITIONS BREAKOUT
WIND DIRECTION BREAKOUT
WEATHER BY HOUR - SEPTEMBER 15, 2013
[ °C ]   °F
Local TimeTemperatureDewpointHumidityBarometerVisibilityWind DirectionWind SpeedGust SpeedPrecipitationEventsConditions
1:53 AM53.1 °F46.9 °F80 %30.05 in10.0 miSE (140°)4.6 mphClear
2:53 AM53.1 °F46.0 °F77 %30.05 in10.0 miCalmClear
3:53 AM52.0 °F46.0 °F80 %30.05 in10.0 miSE (140°)3.5 mphClear
4:53 AM50.0 °F45.0 °F83 %30.05 in10.0 miCalmClear
5:53 AM50.0 °F46.0 °F86 %30.06 in10.0 miCalmClear
6:53 AM53.1 °F46.9 °F80 %30.07 in10.0 miSouth (170°)3.5 mphClear
7:53 AM55.0 °F48.9 °F80 %30.07 in10.0 miSSE (150°)3.5 mphClear
8:53 AM60.1 °F50.0 °F69 %30.08 in10.0 miCalmClear
9:53 AM68.0 °F50.0 °F52 %30.08 in10.0 miSW (220°)4.6 mphClear
10:53 AM71.1 °F51.1 °F49 %30.07 in10.0 miWSW (250°)6.9 mphClear
11:53 AM75.0 °F51.1 °F43 %30.05 in10.0 miVariable5.8 mphClear
12:53 PM78.1 °F52.0 °F40 %30.04 in10.0 miVariable5.8 mphScattered Clouds
1:53 PM81.0 °F52.0 °F36 %30.03 in10.0 miSSW (210°)4.6 mphScattered Clouds
2:53 PM80.1 °F52.0 °F38 %30.01 in10.0 miCalmOvercast
3:53 PM82.0 °F54.0 °F38 %30.00 in10.0 miSouth (170°)5.8 mphOvercast
4:53 PM84.0 °F55.0 °F37 %29.99 in10.0 miSouth (170°)3.5 mphClear
5:53 PM81.0 °F55.0 °F41 %29.99 in10.0 miCalmClear
6:53 PM79.0 °F57.0 °F47 %30.00 in10.0 miCalmPartly Cloudy
7:53 PM73.9 °F60.1 °F62 %30.01 in10.0 miCalmScattered Clouds
8:53 PM75.9 °F59.0 °F56 %30.04 in10.0 miNNW (330°)13.8 mph17.3 mphScattered Clouds
9:09 PM75.2 °F60.8 °F61 %30.06 in10.0 miNorth (350°)13.8 mphPartly Cloudy
9:53 PM73.9 °F61.0 °F64 %30.06 in10.0 miNorth (350°)11.5 mphOvercast
10:53 PM71.1 °F63.0 °F75 %30.07 in9.0 miNorth (350°)6.9 mph0.00 inRainLight Rain
11:53 PM68.0 °F64.0 °F87 %30.10 in10.0 miNorth (350°)8.1 mph0.00 inScattered Clouds
Hourly data recorded from KCPS, located miles away from St. Louis - Saint Louis University, Missouri







STORIES FROM OUR PARTNERS